• In Hungary
  • List of Countries
  • For 7 days
  • Water Temperature
  • Satellite Maps
  • Weather Map
  • News
  • Weather Widgets
  • user-avatar
    Login

    Hourly Weather Selnikovo

    Today, 25 September, Tuesday

    Time Temperature Precipitation Wind Pressure Humidity
    00:00 +6°C° 2.1 mm 4 mps 731 mmHg 94%
    01:00 +7°C° 2.1 mm 4 mps 731 mmHg 94%
    02:00 +8°C° 0 mm 3 mps 731 mmHg 94%
    03:00 +6°C° 1.3 mm 4 mps 731 mmHg 94%
    04:00 +6°C° 1.3 mm 5 mps 731 mmHg 93%
    05:00 +6°C° 1.3 mm 5 mps 732 mmHg 93%
    06:00 +5°C° 0.6 mm 6 mps 732 mmHg 92%
    07:00 +5°C° 0.6 mm 6 mps 733 mmHg 90%
    08:00 +5°C° 0 mm 7 mps 734 mmHg 89%
    09:00 +5°C° 0.3 mm 7 mps 735 mmHg 87%
    10:00 +5°C° 0.3 mm 7 mps 736 mmHg 86%
    11:00 +5°C° 0.3 mm 7 mps 736 mmHg 85%
    12:00 +6°C° 0.4 mm 7 mps 737 mmHg 83%
    13:00 +7°C° 0.4 mm 6 mps 738 mmHg 81%
    14:00 +7°C° 0.4 mm 6 mps 739 mmHg 79%
    15:00 +7°C° 0.1 mm 6 mps 740 mmHg 78%
    16:00 +7°C° 0.1 mm 5 mps 741 mmHg 78%
    17:00 +7°C° 0.1 mm 5 mps 742 mmHg 77%
    18:00 +6°C° 0 mm 5 mps 742 mmHg 78%
    19:00 +5°C° 0 mm 5 mps 743 mmHg 80%
    20:00 +5°C° 0 mm 5 mps 744 mmHg 81%
    21:00 +4°C° 0 mm 4 mps 745 mmHg 81%
    22:00 +4°C° 0 mm 4 mps 746 mmHg 82%
    23:00 +4°C° 0 mm 4 mps 747 mmHg 82%

    Tomorrow, 26 September, Wednesday

    Time Temperature Precipitation Wind Pressure Humidity
    00:00 +3°C° 0 mm 4 mps 747 mmHg 82%
    01:00 +3°C° 0 mm 4 mps 748 mmHg 82%
    02:00 +1°C° 0 mm 4 mps 748 mmHg 82%
    03:00 +1°C° 0 mm 4 mps 749 mmHg 82%
    04:00 +1°C° 0 mm 4 mps 749 mmHg 82%
    05:00 +1°C° 0 mm 3 mps 750 mmHg 82%
    06:00 +2°C° 0 mm 3 mps 750 mmHg 79%
    07:00 +3°C° 0 mm 3 mps 750 mmHg 76%
    08:00 +4°C° 0 mm 3 mps 751 mmHg 73%
    09:00 +5°C° 0 mm 4 mps 751 mmHg 71%
    10:00 +7°C° 0 mm 4 mps 750 mmHg 69%
    11:00 +8°C° 0 mm 4 mps 750 mmHg 67%
    12:00 +10°C° 0 mm 4 mps 750 mmHg 64%
    13:00 +10°C° 0 mm 5 mps 749 mmHg 62%
    14:00 +10°C° 0 mm 5 mps 749 mmHg 59%
    15:00 +10°C° 0 mm 5 mps 748 mmHg 62%
    16:00 +9°C° 0 mm 5 mps 747 mmHg 64%
    17:00 +8°C° 0 mm 4 mps 747 mmHg 67%
    18:00 +8°C° 0.2 mm 5 mps 746 mmHg 70%
    19:00 +7°C° 0.2 mm 6 mps 745 mmHg 72%
    20:00 +6°C° 0.2 mm 7 mps 744 mmHg 75%
    21:00 +5°C° 1.3 mm 7 mps 742 mmHg 79%
    22:00 +5°C° 1.3 mm 8 mps 741 mmHg 83%
    23:00 +5°C° 1.3 mm 8 mps 740 mmHg 86%

    Day after tomorrow, 27 September, Thursday

    Time Temperature Precipitation Wind Pressure Humidity
    00:00 +5°C° 1.9 mm 8 mps 738 mmHg 87%
    01:00 +5°C° 1.9 mm 7 mps 737 mmHg 88%
    02:00 +5°C° 1.9 mm 7 mps 736 mmHg 89%
    03:00 +5°C° 1.5 mm 7 mps 735 mmHg 90%
    04:00 +7°C° 1.5 mm 6 mps 735 mmHg 90%
    05:00 +7°C° 1.5 mm 6 mps 734 mmHg 90%
    06:00 +7°C° 0.2 mm 6 mps 734 mmHg 87%
    07:00 +7°C° 0.2 mm 6 mps 735 mmHg 83%
    08:00 +7°C° 0.2 mm 5 mps 735 mmHg 80%
    09:00 +8°C° 0.2 mm 6 mps 735 mmHg 76%
    10:00 +8°C° 0.2 mm 6 mps 735 mmHg 72%
    11:00 +9°C° 0.2 mm 7 mps 736 mmHg 68%
    12:00 +8°C° 0.3 mm 7 mps 736 mmHg 69%
    13:00 +8°C° 0.3 mm 7 mps 736 mmHg 69%
    14:00 +8°C° 0.3 mm 7 mps 736 mmHg 69%
    15:00 +7°C° 0.1 mm 6 mps 737 mmHg 71%
    16:00 +7°C° 0.1 mm 5 mps 737 mmHg 73%
    17:00 +6°C° 0.1 mm 5 mps 738 mmHg 75%
    18:00 +6°C° 0 mm 5 mps 738 mmHg 77%
    19:00 +5°C° 0 mm 4 mps 739 mmHg 78%
    20:00 +5°C° 0 mm 4 mps 739 mmHg 79%
    21:00 +5°C° 0 mm 4 mps 739 mmHg 79%
    22:00 +5°C° 0 mm 4 mps 740 mmHg 79%
    23:00 +4°C° 0 mm 4 mps 740 mmHg 79%

    28 September, Friday

    Time Temperature Precipitation Wind Pressure Humidity
    00:00 +4°C° 0 mm 4 mps 740 mmHg 80%
    01:00 +4°C° 0 mm 4 mps 740 mmHg 81%
    02:00 +4°C° 0 mm 4 mps 740 mmHg 82%
    03:00 +4°C° 0 mm 4 mps 740 mmHg 82%
    04:00 +4°C° 0 mm 4 mps 740 mmHg 83%
    05:00 +4°C° 0 mm 3 mps 740 mmHg 83%
    06:00 +4°C° 0.7 mm 3 mps 739 mmHg 85%
    07:00 +4°C° 0.7 mm 3 mps 738 mmHg 87%
    08:00 +4°C° 0.7 mm 3 mps 737 mmHg 89%
    09:00 +4°C° 2.2 mm 4 mps 736 mmHg 90%
    10:00 +5°C° 2.2 mm 5 mps 734 mmHg 91%
    11:00 +6°C° 2.2 mm 5 mps 733 mmHg 92%
    12:00 +6°C° 1 mm 5 mps 733 mmHg 91%
    13:00 +6°C° 1 mm 5 mps 733 mmHg 90%
    14:00 +6°C° 1 mm 5 mps 733 mmHg 89%
    15:00 +6°C° 0.1 mm 5 mps 734 mmHg 88%
    16:00 +5°C° 0.1 mm 5 mps 735 mmHg 87%
    17:00 +3°C° 0.1 mm 5 mps 736 mmHg 86%
    18:00 +2°C° 0 mm 5 mps 738 mmHg 85%
    19:00 +3°C° 0 mm 4 mps 739 mmHg 85%
    20:00 +1°C° 0 mm 4 mps 741 mmHg 85%
    21:00 +1°C° 0 mm 4 mps 742 mmHg 86%
    22:00 +1°C° 0 mm 3 mps 742 mmHg 87%
    23:00 +1°C° 0 mm 3 mps 743 mmHg 89%

    29 September, Saturday

    Time Temperature Precipitation Wind Pressure Humidity
    00:00 0°C° 0 mm 3 mps 743 mmHg 90%
    01:00 0°C° 0 mm 3 mps 744 mmHg 92%
    02:00 0°C° 0 mm 3 mps 745 mmHg 93%
    03:00 0°C° 0 mm 3 mps 745 mmHg 93%
    04:00 -1°C° 0 mm 3 mps 746 mmHg 93%
    05:00 -1°C° 0 mm 3 mps 746 mmHg 93%
    06:00 0°C° 0 mm 3 mps 747 mmHg 88%
    07:00 +1°C° 0 mm 3 mps 748 mmHg 82%
    08:00 0°C° 0 mm 4 mps 748 mmHg 77%
    09:00 +1°C° 0 mm 4 mps 749 mmHg 70%
    10:00 +3°C° 0 mm 4 mps 749 mmHg 64%
    11:00 +5°C° 0 mm 4 mps 750 mmHg 57%
    12:00 +5°C° 0 mm 4 mps 750 mmHg 55%
    13:00 +5°C° 0 mm 4 mps 751 mmHg 54%
    14:00 +5°C° 0 mm 4 mps 751 mmHg 52%
    15:00 +4°C° 0 mm 3 mps 751 mmHg 57%
    16:00 +3°C° 0 mm 3 mps 751 mmHg 63%
    17:00 +3°C° 0 mm 2 mps 752 mmHg 69%
    18:00 +2°C° 0 mm 2 mps 752 mmHg 72%
    19:00 +2°C° 0 mm 2 mps 753 mmHg 76%
    20:00 +1°C° 0 mm 2 mps 753 mmHg 79%
    21:00 -1°C° 0 mm 2 mps 754 mmHg 79%
    22:00 -1°C° 0 mm 2 mps 754 mmHg 80%
    23:00 -1°C° 0 mm 2 mps 754 mmHg 80%

    30 September, Sunday

    Time Temperature Precipitation Wind Pressure Humidity
    00:00 -2°C° 0 mm 2 mps 755 mmHg 80%
    01:00 -2°C° 0 mm 2 mps 755 mmHg 80%
    02:00 -2°C° 0 mm 2 mps 755 mmHg 79%
    03:00 -2°C° 0 mm 2 mps 755 mmHg 78%
    04:00 -2°C° 0 mm 2 mps 755 mmHg 77%
    05:00 -2°C° 0 mm 3 mps 754 mmHg 76%
    06:00 0°C° 0 mm 3 mps 754 mmHg 71%
    07:00 0°C° 0 mm 4 mps 754 mmHg 66%
    08:00 +1°C° 0 mm 4 mps 754 mmHg 61%
    09:00 +3°C° 0 mm 5 mps 754 mmHg 59%
    10:00 +5°C° 0 mm 5 mps 753 mmHg 58%
    11:00 +7°C° 0 mm 6 mps 753 mmHg 56%
    12:00 +8°C° 0 mm 6 mps 752 mmHg 56%
    13:00 +8°C° 0 mm 6 mps 752 mmHg 56%
    14:00 +9°C° 0 mm 6 mps 752 mmHg 56%
    15:00 +8°C° 0 mm 5 mps 752 mmHg 60%
    16:00 +7°C° 0 mm 4 mps 751 mmHg 65%
    17:00 +6°C° 0 mm 4 mps 751 mmHg 70%
    18:00 +6°C° 0 mm 4 mps 751 mmHg 72%
    19:00 +5°C° 0 mm 4 mps 751 mmHg 74%
    20:00 +5°C° 0 mm 4 mps 751 mmHg 75%
    21:00 +5°C° 0 mm 4 mps 751 mmHg 76%
    22:00 +5°C° 0 mm 4 mps 751 mmHg 77%
    23:00 +5°C° 0 mm 4 mps 751 mmHg 78%
    Show more